Theta_e
335 334 335 329 326 322 317 317 302 311 307 297 299 301 298 306 307 305 304 307 308 314 317 317 314 316 314 313 316 320 319 315 318 309 310 323 335 333 328 330 333 337 339 339 341 342 341 346 347 346 346 346 346 346 346 346 345 343 341 340 341 343 343 342 342 342 343 345 344 344 346 346 345 344 344 344 344 344 344 344 345 345 345 345 345 346 344 344 344 344 344 344 343 343 341 340 339
331 326 324 324 323 324 313 319 306 299 301 297 299 303 302 301 303 304 301 308 310 312 314 314 314 315 318 315 315 323 320 322 323 321 326 332 332 327 329 331 333 337 338 338 339 339 339 344 347 346 346 346 346 345 347 347 346 343 340 342 343 343 343 343 342 343 343 343 344 345 346 344 345 345 344 345 344 344 344 345 345 345 345 345 345 345 344 344 343 344 343 343 342 341 339 338 337
327 323 322 322 321 317 314 313 299 297 296 296 298 300 304 301 303 305 310 311 312 314 315 315 315 315 313 312 316 316 313 325 325 326 325 333 324 321 327 332 333 334 339 338 339 338 338 340 345 346 346 346 345 344 346 346 344 343 342 341 341 342 341 341 342 343 343 344 344 344 344 345 345 345 344 345 344 343 345 344 344 344 345 345 345 344 344 343 343 343 343 342 342 340 339 338 337
331 326 324 321 313 319 308 307 302 297 295 298 296 303 303 304 308 310 312 313 313 313 315 312 311 317 316 312 316 324 322 321 327 326 324 327 326 323 327 332 333 333 335 339 340 338 336 339 344 346 346 345 344 341 344 345 342 340 340 341 342 342 342 344 344 343 343 343 343 344 343 343 344 344 343 344 343 343 345 344 344 344 345 345 345 345 344 343 342 342 342 342 341 339 338 338 337
324 327 326 319 318 311 312 306 300 300 296 297 296 302 303 309 310 310 311 313 313 313 314 315 310 319 316 317 322 314 318 325 325 328 327 329 328 324 330 332 332 331 335 339 338 336 336 341 344 345 344 342 344 342 341 342 341 339 340 341 340 341 342 343 343 343 342 342 343 343 342 342 344 346 345 345 345 345 344 344 344 344 344 344 344 343 343 342 342 342 342 341 341 340 338 337 337
324 321 325 323 312 319 311 300 297 296 301 303 299 300 304 309 310 312 312 313 314 314 316 313 313 309 313 319 324 319 328 319 326 329 328 326 326 327 332 333 330 330 334 339 337 336 338 340 341 344 342 342 345 345 344 343 341 339 339 340 339 341 342 342 341 342 343 343 343 343 343 343 343 343 344 344 344 344 344 343 343 343 343 342 343 342 342 342 342 342 341 341 340 338 337 336 336
320 319 321 323 319 317 303 298 297 299 300 304 301 301 305 309 310 311 311 312 316 316 315 314 315 316 314 319 324 328 332 331 329 330 330 328 327 327 331 330 329 330 335 339 337 338 339 340 343 344 343 343 344 344 345 344 341 340 341 342 341 342 342 342 343 344 344 343 343 343 343 343 342 342 342 342 342 342 343 343 343 343 342 342 342 342 342 342 342 341 340 339 338 337 336 335 335
323 317 319 311 308 308 302 301 299 301 301 303 304 304 307 310 310 310 310 310 310 309 313 317 314 313 313 321 316 328 333 334 332 332 331 329 327 326 330 330 329 330 333 338 337 338 343 340 343 343 343 341 342 342 343 345 345 343 344 343 343 343 342 342 342 343 342 342 342 343 342 342 341 341 341 341 341 342 342 343 342 342 342 341 341 341 341 341 341 340 339 338 337 336 335 335 334
320 318 325 315 303 309 302 302 302 304 302 303 303 307 312 310 310 309 307 310 311 312 311 315 313 310 309 320 318 326 330 334 333 332 330 329 325 326 329 330 329 330 335 338 338 339 339 338 342 343 344 343 343 344 344 345 345 344 343 344 343 342 341 341 341 341 341 341 341 341 341 341 340 340 341 341 341 340 341 341 342 341 341 341 340 341 341 340 340 339 338 338 337 336 335 334 334
316 316 309 311 311 301 302 303 301 301 301 303 303 304 308 310 309 310 308 310 307 312 311 314 315 312 317 314 319 324 326 332 331 329 330 327 326 327 329 330 330 331 337 336 336 337 339 343 339 341 342 343 344 343 344 343 343 344 343 342 341 341 341 341 341 340 340 340 340 340 340 340 341 341 340 340 340 341 341 341 342 341 341 341 340 340 340 340 340 338 337 337 336 335 335 333 333
310 317 320 308 303 300 300 302 300 301 302 304 304 306 308 308 310 309 310 308 311 310 313 315 312 312 312 321 322 330 332 332 329 326 328 326 326 327 328 330 331 332 335 336 336 338 338 338 341 337 340 342 342 343 344 343 342 343 342 341 340 340 339 341 340 339 339 339 340 341 342 341 341 340 340 340 341 340 341 341 341 341 341 341 341 340 340 339 339 338 336 336 335 335 334 333 333
308 308 315 303 301 302 304 303 302 301 303 303 302 305 307 309 310 309 309 308 308 312 312 314 309 315 311 317 319 327 331 330 329 328 327 327 326 328 329 329 331 332 334 335 337 337 337 338 337 341 337 339 338 340 341 342 342 341 342 340 339 339 339 339 343 343 342 342 341 341 341 341 340 340 340 341 342 341 341 341 341 341 341 341 341 341 339 338 337 338 337 335 335 334 334 333 333
311 313 307 303 302 304 305 303 303 300 300 301 302 305 306 309 308 309 310 309 307 310 311 313 316 314 308 316 322 327 327 330 330 329 326 325 326 328 330 329 331 333 333 333 335 335 336 335 336 336 334 333 335 336 337 340 341 342 342 340 341 340 341 341 343 342 341 341 341 341 341 341 341 340 340 341 341 341 340 341 340 340 340 340 339 339 339 338 337 337 336 336 335 334 334 333 333
314 315 310 302 307 305 304 304 305 298 298 303 305 306 307 308 309 310 309 307 307 308 314 315 315 313 312 320 320 321 325 331 330 329 326 326 327 328 329 329 331 330 333 333 335 335 334 333 334 335 333 334 333 333 333 336 339 341 341 341 342 342 343 342 342 341 341 340 340 339 339 339 339 338 337 338 339 339 339 339 340 339 339 339 338 338 337 336 336 337 336 336 336 334 334 333 332
312 315 310 306 302 303 306 302 304 302 299 304 305 306 307 312 311 311 309 307 312 317 318 318 320 309 305 309 317 321 326 330 330 329 326 326 327 327 328 330 330 329 329 330 335 334 333 333 334 334 333 333 333 333 333 334 335 337 338 339 339 340 339 339 338 339 338 338 337 336 335 333 332 332 332 333 335 335 334 332 336 338 338 338 338 337 336 336 335 336 336 335 335 335 334 333 332
319 312 309 303 300 301 305 305 307 303 300 305 306 307 308 310 314 310 311 314 313 319 317 312 319 312 317 320 321 326 330 330 330 328 326 325 326 327 327 328 328 327 327 329 330 335 334 332 333 333 332 332 332 332 334 333 332 333 336 336 336 336 335 335 335 334 331 330 330 331 329 329 329 329 328 328 328 330 331 330 332 337 337 337 336 336 335 335 334 335 336 335 334 333 332 332 332
320 316 303 302 300 302 305 304 306 300 302 305 308 306 307 307 313 310 311 316 313 312 313 316 314 320 323 327 328 330 330 329 328 328 325 323 324 323 324 324 325 324 328 327 328 332 335 334 333 333 332 332 332 333 333 334 332 331 331 330 330 331 332 331 329 325 324 323 325 325 327 331 330 329 331 329 324 325 322 326 331 335 336 335 335 335 334 334 334 334 333 333 333 333 330 329 328
318 306 302 300 303 303 307 307 308 306 303 304 307 307 307 305 309 311 312 312 312 312 311 317 320 320 327 329 331 331 330 328 327 325 323 321 322 321 320 321 322 322 323 325 328 329 333 334 335 334 331 332 331 334 335 335 332 333 332 331 331 328 327 325 327 330 332 329 325 326 330 330 329 330 331 332 328 328 325 324 327 331 334 333 333 333 332 332 332 332 333 332 331 331 326 322 321
308 305 304 301 305 308 312 311 311 304 303 305 308 307 307 307 309 309 307 307 308 308 309 315 316 318 325 329 329 329 328 326 325 325 322 320 320 319 319 320 322 322 322 323 325 327 328 332 333 333 332 332 332 334 335 334 332 332 333 333 332 330 330 331 332 333 332 331 330 330 329 329 328 329 327 327 325 320 323 322 325 328 330 330 331 331 330 330 331 331 330 330 331 330 323 322 323
308 305 302 304 309 309 308 308 304 305 306 306 306 308 308 309 309 311 306 306 307 307 306 311 312 314 320 326 327 326 327 325 325 324 321 320 319 319 319 320 321 322 322 323 324 327 326 327 330 332 334 334 332 333 335 334 332 331 331 331 332 331 331 332 330 331 331 332 331 331 330 326 327 326 326 327 326 324 321 319 321 322 324 325 325 326 328 328 328 325 326 327 326 323 324 324 324
310 305 302 306 311 308 306 309 305 304 306 305 306 307 308 308 309 308 307 304 305 307 310 311 311 315 319 325 325 325 325 324 325 323 321 320 319 320 320 321 321 323 323 324 324 325 326 326 329 329 332 334 333 333 333 333 332 330 330 329 331 327 330 329 327 328 330 332 330 330 327 328 328 326 326 326 327 326 324 323 321 321 321 321 320 324 324 323 322 322 322 321 321 324 323 322 322
315 307 309 309 309 306 308 305 304 303 303 304 304 303 306 310 309 307 307 303 302 307 311 312 314 319 320 325 324 324 324 324 324 323 322 320 318 318 320 321 322 323 323 323 323 324 325 327 327 327 329 330 332 332 332 333 331 329 329 329 327 327 328 327 326 327 327 329 328 327 327 325 325 325 325 324 325 325 327 325 326 326 326 323 320 326 325 323 322 325 324 324 324 322 323 323 321
305 310 310 311 311 307 304 303 301 303 305 303 301 305 308 308 307 307 307 306 307 309 309 312 315 320 322 327 325 323 323 323 323 323 323 320 319 319 320 321 321 322 322 322 324 324 325 326 327 327 327 329 330 331 331 331 330 329 330 329 327 327 327 326 325 326 327 327 327 326 324 323 322 322 323 322 321 322 322 322 321 320 320 322 323 322 322 325 324 322 321 322 321 322 321 322 322
310 307 312 310 312 310 306 301 302 301 304 303 304 304 304 305 301 307 306 309 309 310 310 311 320 323 325 326 324 323 323 323 323 324 325 323 321 320 320 321 321 322 322 322 323 324 324 325 327 327 327 328 328 330 330 330 330 329 329 328 328 325 327 326 326 327 328 326 326 326 324 324 322 321 321 320 321 321 321 321 320 320 320 321 322 322 321 322 321 320 321 321 320 320 321 322 321
309 308 311 310 311 312 303 301 301 303 302 302 303 302 301 303 303 305 305 308 310 310 309 310 323 323 324 325 323 323 323 324 324 326 327 326 323 322 322 321 320 322 322 322 323 323 325 325 326 326 326 327 328 328 327 327 329 329 328 328 327 326 327 327 327 327 327 327 327 326 324 324 323 323 322 322 322 320 320 320 320 320 320 320 320 320 320 320 320 320 321 320 319 320 320 321 321
313 311 311 310 306 308 303 302 302 301 303 303 301 300 302 303 303 302 304 306 308 310 308 309 316 321 322 324 324 324 324 324 325 326 326 328 327 324 322 320 320 321 323 323 324 324 325 326 325 325 326 326 327 327 325 324 325 326 327 327 328 325 325 325 327 327 326 326 327 326 325 324 323 322 322 322 321 320 320 319 319 319 321 319 319 318 318 319 321 319 320 321 320 320 319 320 319
314 311 310 312 309 306 303 302 302 302 302 301 299 300 301 302 302 297 304 306 306 310 308 309 309 320 320 322 323 324 324 324 326 327 327 327 328 326 324 322 320 321 323 323 324 325 325 325 325 326 326 325 326 325 324 324 325 324 325 326 326 325 325 325 325 327 327 327 326 326 325 325 325 323 323 322 321 321 320 320 319 319 318 318 318 319 318 319 320 322 323 321 320 319 319 317 315
311 311 310 311 310 305 303 303 303 300 299 300 300 300 302 301 302 299 303 306 306 309 308 308 309 313 317 319 322 322 324 325 327 327 326 326 326 327 326 323 321 322 323 322 324 325 325 325 326 326 326 326 326 326 325 325 325 325 325 326 326 326 326 325 324 324 323 326 327 327 326 325 323 324 324 323 323 322 320 321 321 320 321 319 319 318 317 317 318 320 321 321 319 316 315 316 316
312 309 306 309 308 304 303 301 303 300 299 301 301 298 298 297 297 302 304 306 305 308 307 307 308 310 315 315 320 321 321 324 325 326 327 327 328 329 327 327 323 322 323 323 325 325 325 325 326 326 326 327 327 326 326 326 326 326 326 326 327 328 327 326 325 325 323 325 326 328 327 326 325 325 325 325 324 324 322 322 322 322 322 321 320 318 318 317 317 318 319 320 319 316 316 317 319
312 308 305 304 303 302 304 304 303 299 301 301 301 290 295 298 301 302 304 304 306 306 305 307 308 308 311 313 316 320 321 322 324 325 327 327 328 328 328 328 326 324 322 323 325 324 325 326 326 327 326 326 326 327 326 325 325 325 325 326 326 327 326 325 325 325 324 325 325 327 328 327 325 325 327 327 326 324 324 324 323 323 322 321 320 320 318 318 317 316 318 318 317 316 317 319 318
303 305 306 300 299 299 306 305 304 300 302 301 302 292 297 303 303 303 304 305 305 304 304 308 309 308 308 312 314 318 321 322 324 326 327 328 328 328 328 329 327 326 323 324 324 324 325 326 327 327 325 326 325 326 325 326 326 326 326 326 326 327 326 326 325 325 325 325 326 327 327 327 326 326 327 327 325 325 324 323 323 323 324 323 322 322 321 321 320 319 318 319 318 317 318 319 319
305 300 296 300 298 300 306 309 305 299 300 303 300 293 297 303 308 304 305 305 305 304 304 307 309 308 308 311 314 317 319 322 324 326 327 328 328 327 327 328 329 327 325 325 325 325 325 326 325 325 325 326 326 326 326 326 326 327 326 325 326 327 326 326 325 325 326 326 326 326 327 327 327 327 327 327 326 325 324 323 324 324 324 324 324 323 324 322 321 322 321 321 319 319 319 320 317
302 300 296 296 298 299 301 306 307 305 300 301 300 295 302 304 309 305 304 305 304 303 304 306 308 309 308 310 313 316 317 319 322 325 327 327 328 328 327 328 328 328 327 326 325 325 324 324 324 325 325 326 327 326 326 326 326 326 326 326 327 327 326 325 325 326 326 326 326 326 327 327 327 327 327 327 326 326 325 325 324 325 325 324 324 323 323 323 321 323 321 321 321 318 318 318 318
296 300 296 299 297 298 296 305 307 305 299 296 300 298 301 303 300 301 304 304 303 302 303 304 306 307 308 311 314 316 316 318 320 323 325 327 327 328 329 326 328 329 328 328 327 325 324 325 324 325 325 326 327 326 326 326 327 327 326 326 325 327 326 325 325 326 326 326 326 326 327 327 326 327 328 328 327 327 326 325 324 326 326 325 323 323 323 324 323 323 322 321 322 320 317 317 317
294 296 295 296 299 300 298 299 303 303 301 297 297 297 299 303 300 299 301 302 303 302 302 302 303 305 308 311 313 315 315 315 319 322 324 326 327 328 328 328 328 328 329 329 329 327 326 326 324 323 325 325 326 326 326 326 327 327 327 326 325 326 326 325 325 326 326 326 326 326 327 327 326 328 328 328 328 326 326 325 325 326 326 325 324 323 323 323 323 322 321 321 322 322 320 318 317
299 299 296 297 296 297 297 299 302 302 299 298 295 294 296 299 301 300 300 301 301 301 301 301 302 302 306 310 311 312 313 314 317 322 324 325 326 327 328 328 329 329 329 330 329 329 328 327 325 324 325 326 326 326 326 325 326 325 325 324 324 324 326 324 325 325 326 326 326 326 327 328 327 327 328 328 328 326 325 325 325 326 326 325 324 323 322 322 322 321 321 320 319 319 320 320 316
303 300 298 297 297 298 301 297 300 302 298 295 296 296 296 297 300 302 302 299 300 300 300 301 301 301 305 308 311 311 312 314 317 321 323 324 326 327 328 327 327 328 329 329 328 329 329 328 326 324 325 326 325 325 324 324 323 323 324 324 323 324 324 325 325 325 325 325 326 327 327 327 328 327 328 329 328 325 325 325 325 325 326 325 324 323 323 322 323 322 321 321 320 319 317 317 317
302 299 298 297 299 296 300 296 299 301 296 294 297 297 298 299 301 302 303 300 298 299 299 300 301 301 302 304 306 309 311 313 317 318 322 323 324 326 327 327 325 326 327 328 328 329 329 329 327 327 326 326 326 325 325 324 324 324 323 323 324 324 324 324 324 325 326 326 326 327 327 328 328 328 327 329 328 327 325 324 324 325 326 325 324 324 324 320 322 322 322 319 320 319 317 317 318
301 299 298 297 297 299 298 297 298 297 296 293 296 295 297 299 301 303 302 302 301 301 301 301 301 301 302 302 302 305 306 308 312 317 319 322 324 325 326 326 327 327 327 327 328 328 329 328 328 328 328 327 327 326 326 325 325 325 325 324 325 324 326 326 325 325 326 326 327 328 328 328 329 328 327 327 328 327 325 325 325 325 326 325 324 323 323 323 322 321 321 319 315 318 318 318 317
299 298 296 294 298 296 292 295 298 297 297 296 298 296 297 301 302 302 302 302 303 303 303 303 303 302 302 303 304 304 304 305 309 313 317 319 323 325 325 325 326 327 326 326 327 327 329 328 328 328 328 328 328 328 325 327 326 326 326 325 326 326 325 325 326 326 326 326 325 327 328 328 329 328 328 327 327 327 325 325 325 325 326 326 325 323 323 322 322 321 321 320 318 315 316 316 317
300 301 299 297 298 299 298 294 298 298 298 299 295 294 296 298 298 300 303 305 305 305 304 303 303 304 304 305 305 305 304 305 308 312 314 317 321 323 324 325 326 325 326 326 327 327 329 328 328 328 329 328 328 327 327 328 326 325 326 325 324 325 324 325 325 324 325 324 325 325 327 328 329 329 329 327 326 326 326 325 325 325 326 326 325 324 323 323 323 323 322 321 320 318 314 315 317
298 302 302 304 302 300 295 297 295 291 291 295 296 287 289 297 300 301 304 304 303 305 305 304 303 303 303 303 303 305 306 306 307 310 312 315 319 322 323 324 325 325 325 327 327 328 328 328 328 328 328 328 328 328 327 327 326 326 325 324 323 324 323 323 323 323 324 324 324 326 327 328 329 329 330 329 327 325 326 326 326 325 325 326 326 325 324 324 323 323 323 323 321 321 319 313 313
296 297 304 305 304 302 297 297 296 288 285 293 297 289 284 294 295 298 302 303 303 304 304 305 304 304 303 303 303 304 305 305 306 308 309 311 315 319 322 323 324 324 325 327 327 327 327 327 328 328 328 328 328 328 328 326 326 326 326 325 324 324 323 324 326 326 326 326 327 326 327 328 329 329 329 330 329 327 327 327 326 326 326 327 325 326 325 324 324 324 324 323 322 321 319 315 314
295 303 304 304 303 302 301 299 297 294 297 293 293 293 283 285 293 298 298 297 298 301 303 304 305 304 303 302 303 303 304 305 306 306 307 308 311 316 319 322 323 324 325 325 326 326 326 326 327 327 328 327 328 329 328 327 326 326 326 325 324 324 324 324 326 326 327 327 327 327 327 328 329 329 329 330 331 329 327 327 327 326 326 327 325 326 325 325 325 325 324 324 323 321 321 318 315
299 304 304 302 304 303 302 299 296 296 289 287 288 293 285 284 292 298 298 296 297 298 299 302 304 304 303 302 303 304 305 305 306 306 306 307 308 312 317 319 321 323 323 324 325 326 326 326 326 327 327 327 328 328 327 327 326 326 326 326 325 324 325 325 325 325 326 327 327 327 327 327 328 328 329 329 329 330 326 327 328 327 327 328 325 327 326 326 325 324 323 323 322 321 321 319 318
299 303 306 304 303 302 302 296 295 292 286 284 288 292 285 285 292 294 296 296 296 298 301 302 303 304 304 304 304 304 305 305 306 306 307 307 307 311 315 317 319 321 323 324 324 325 325 325 325 325 326 327 327 328 327 327 326 325 325 326 325 325 324 324 324 324 325 326 326 326 327 327 327 327 328 329 329 330 328 327 328 327 327 327 324 327 327 326 325 324 324 323 323 322 321 319 319
303 302 299 298 297 293 294 292 288 286 282 286 291 293 290 282 289 293 293 294 297 298 300 302 303 304 304 304 305 306 304 304 305 305 306 307 307 308 311 312 316 319 320 322 323 324 324 325 325 324 326 327 327 328 328 327 327 326 325 325 325 324 324 323 323 323 324 324 325 325 325 326 326 327 327 328 328 328 328 327 327 327 327 325 324 326 327 326 326 325 324 324 322 322 321 320 318
301 295 293 293 291 293 290 287 288 283 283 286 291 292 293 283 286 294 299 299 299 299 298 299 300 302 304 304 305 306 305 304 304 305 304 305 306 305 307 307 310 314 317 319 321 322 323 325 325 324 325 326 327 327 327 328 328 326 326 325 324 325 324 324 323 323 323 323 324 324 324 324 325 325 326 326 327 327 327 326 326 327 326 327 326 327 327 327 326 325 324 323 323 323 322 320 320
299 296 294 289 284 286 284 285 282 284 283 282 284 292 287 289 292 295 296 298 299 298 299 299 299 300 301 303 304 304 304 302 303 303 304 304 306 305 305 305 305 310 314 317 319 321 322 323 324 324 324 325 326 326 326 327 327 327 326 325 325 325 325 324 324 323 324 323 323 323 323 323 323 323 325 325 326 326 326 326 326 326 326 327 327 327 327 327 326 325 324 323 323 322 323 321 320
297 294 290 287 283 282 281 283 285 284 286 284 284 288 284 288 290 298 299 301 302 301 298 299 300 300 300 299 302 301 304 304 305 306 303 303 304 304 304 304 304 306 310 313 315 317 320 321 322 323 323 324 324 325 326 326 326 327 327 326 326 325 324 324 325 324 324 324 323 323 323 323 323 323 324 325 326 326 326 327 327 327 327 327 326 327 327 327 327 326 325 323 323 323 322 321 320
296 298 295 289 287 283 280 283 280 281 281 282 287 285 281 282 287 294 299 301 301 301 303 300 299 300 300 298 300 299 299 303 304 301 303 303 304 303 303 303 303 304 305 308 310 312 313 315 318 319 320 320 322 323 324 324 325 326 326 326 326 325 325 324 325 325 325 323 323 323 323 323 323 323 324 325 326 326 326 327 327 327 327 327 326 326 326 326 326 326 325 324 324 323 322 321 321
298 298 299 292 288 290 283 284 283 281 279 278 280 283 286 289 294 296 297 295 294 295 296 296 296 297 298 298 297 297 297 298 299 300 301 302 302 303 303 302 302 302 302 302 303 305 307 309 311 314 316 317 319 320 322 323 324 324 325 325 325 325 323 324 323 323 324 325 324 324 323 324 324 323 323 323 325 326 326 326 326 326 327 327 326 325 325 325 325 325 324 323 323 323 322 321 321
294 296 290 293 296 292 284 282 284 283 282 280 283 283 287 293 295 298 298 296 296 294 294 294 295 295 296 297 297 297 297 297 299 300 299 300 302 303 303 302 302 303 302 303 303 303 304 305 306 307 308 309 313 315 318 320 322 322 323 324 324 324 324 323 323 323 323 324 324 324 324 324 324 323 322 323 324 325 326 326 326 326 327 326 326 325 325 324 324 323 322 322 322 322 321 320 320
297 290 294 296 298 296 290 283 281 281 277 280 283 283 283 284 283 295 296 296 297 295 294 295 295 295 295 296 298 299 299 299 300 300 302 302 302 302 303 303 303 303 303 303 303 302 302 303 303 304 304 306 308 311 314 317 318 319 321 322 323 323 323 323 322 321 321 321 322 322 321 321 322 322 323 322 323 324 325 321 326 326 326 326 326 326 325 325 323 322 322 322 321 320 319 319 317
296 294 301 294 284 286 287 286 279 276 277 278 281 283 282 286 287 290 291 293 295 297 295 294 294 294 294 296 299 299 299 300 301 302 300 299 299 300 301 301 302 303 303 303 303 304 303 302 303 304 304 305 306 309 310 313 316 318 319 319 320 321 322 321 321 321 320 320 320 320 320 320 320 320 320 320 321 322 323 323 325 325 325 325 325 325 324 324 323 322 321 321 319 318 317 315 315
298 299 296 298 293 289 287 287 284 282 278 277 276 283 281 290 291 292 293 293 295 295 295 294 294 295 295 296 299 299 299 301 301 300 300 301 300 299 300 301 301 301 301 301 302 303 302 302 302 302 303 304 305 307 309 310 312 314 316 315 316 318 319 320 319 320 320 320 320 319 319 318 319 319 320 319 319 320 320 321 322 323 323 324 324 324 324 323 322 321 319 318 316 317 315 312 310
289 293 290 292 289 290 292 290 286 281 279 279 278 277 281 289 296 295 296 297 295 294 296 296 295 295 296 297 299 300 300 301 300 300 301 301 299 299 298 299 299 298 297 299 301 302 302 302 302 302 303 302 303 305 307 309 310 312 312 314 315 315 316 317 317 318 318 319 319 318 318 319 315 318 318 316 316 319 320 321 322 321 322 322 322 322 322 322 321 320 318 316 313 314 313 311 310
293 293 291 293 290 285 285 283 290 287 283 278 279 279 283 292 292 295 294 294 293 294 296 296 295 297 299 300 300 301 301 299 299 299 300 300 300 299 298 297 297 297 298 298 300 301 301 302 303 302 302 302 303 304 305 306 307 308 309 312 314 314 315 313 314 315 316 316 316 316 316 315 314 314 318 319 318 319 319 320 320 320 321 321 321 321 319 320 318 316 313 315 313 313 311 308 309
Wind_Speed
9 8 5 4 4 4 4 2 2 1 2 7 2 2 2 2 3 4 5 4 5 3 3 5 4 7 6 3 11 11 9 6 2 2 1 3 4 6 9 10 11 11 12 8 7 5 3 9 12 12 12 12 12 12 12 12 11 10 12 11 12 14 13 13 12 13 14 14 14 15 15 14 15 16 16 16 16 15 15 16 16 17 18 19 19 20 20 20 20 20 20 19 19 18 18 18 18
8 6 6 4 3 2 2 0 1 4 4 5 3 6 3 3 2 5 4 4 5 4 3 4 6 3 1 3 3 10 13 10 9 9 8 7 8 7 10 10 11 13 10 8 7 7 5 7 11 12 11 12 12 12 13 13 11 11 10 13 13 12 12 13 13 13 13 13 15 15 14 14 16 16 15 16 16 15 16 16 16 16 18 18 19 20 20 19 19 19 19 18 18 18 18 17 17
8 7 6 4 4 3 3 0 2 3 5 1 4 4 3 3 3 6 8 10 8 5 5 5 3 1 3 2 6 8 4 10 10 8 7 9 8 7 9 8 9 11 12 8 8 8 5 5 9 12 12 11 11 13 13 12 11 11 11 12 12 11 11 12 14 13 13 13 14 14 15 14 14 14 15 15 15 16 17 16 15 16 18 19 19 19 19 19 19 19 18 18 17 17 17 16 16
6 7 4 3 3 2 2 1 3 4 5 1 4 1 2 3 11 11 9 9 6 4 4 3 2 1 6 7 8 12 8 6 7 7 6 6 6 8 9 9 10 8 8 9 8 8 6 5 9 11 12 10 11 11 12 13 12 11 11 12 12 12 12 12 12 12 12 13 13 13 14 14 14 15 14 15 15 15 17 16 16 16 18 19 18 18 18 18 18 18 17 17 17 16 16 15 15
5 4 4 3 2 2 2 2 3 2 3 3 3 2 1 10 9 8 6 6 4 3 3 3 4 1 1 4 4 3 6 9 9 5 5 5 12 7 9 9 7 7 9 10 9 9 7 9 8 10 12 11 11 11 11 11 10 9 10 11 10 13 13 12 11 12 12 12 13 13 14 13 15 15 14 15 15 14 15 15 16 16 18 18 17 17 17 18 17 17 17 17 16 16 15 15 15
7 5 4 2 2 0 1 2 4 6 2 3 5 4 3 8 10 7 6 5 4 3 1 5 1 5 2 5 4 3 2 2 7 6 8 7 10 9 9 7 7 5 9 11 10 7 7 9 7 10 12 11 11 12 11 10 9 8 9 11 11 12 11 11 11 11 12 12 12 13 13 12 13 15 14 14 15 14 15 15 16 16 16 16 16 17 17 17 17 17 16 16 16 16 15 15 15
3 3 2 2 3 1 2 4 6 2 3 2 3 2 4 8 8 8 7 5 1 2 3 1 2 8 6 3 7 5 5 2 7 8 7 9 9 9 8 8 6 5 11 10 9 8 7 9 7 9 10 11 10 10 10 10 9 9 9 10 11 11 11 11 12 11 11 12 12 13 13 12 12 12 13 13 13 14 15 15 16 15 15 15 15 16 16 16 16 16 16 15 15 15 15 15 15
4 0 2 2 2 2 3 5 6 3 2 5 2 5 3 10 7 6 6 6 4 2 2 2 2 1 5 7 5 1 8 12 12 14 13 9 9 7 5 8 7 5 8 12 10 8 8 9 7 8 9 11 10 9 9 10 9 9 8 10 11 11 10 11 12 12 11 12 12 12 12 12 12 12 12 13 12 12 14 14 14 15 14 14 15 15 15 15 15 15 15 15 15 15 15 15 14
3 2 1 1 3 3 4 5 5 5 3 3 4 4 4 6 6 6 6 2 7 4 5 2 3 2 3 9 7 5 5 10 12 12 11 11 10 6 6 7 7 6 10 11 10 8 6 8 7 8 8 12 11 10 9 10 11 11 8 11 11 11 11 10 11 11 11 11 11 11 11 11 11 11 12 11 11 12 12 13 14 14 14 14 14 14 14 15 14 15 15 15 15 14 14 14 14
4 2 2 2 2 5 3 4 6 1 3 4 5 4 2 4 5 5 5 5 4 5 5 4 2 1 10 10 8 4 4 9 10 10 10 10 9 6 7 8 6 9 12 10 9 8 6 8 7 8 9 12 12 11 11 9 10 12 10 10 11 10 11 10 10 10 10 11 10 10 11 11 11 10 10 11 11 12 12 13 13 13 13 13 13 13 13 14 14 14 14 14 14 14 13 13 13
3 2 0 2 3 4 5 4 5 2 6 3 5 4 3 3 4 3 5 3 5 2 6 3 2 3 4 6 4 2 7 8 10 11 10 10 7 6 7 8 6 6 11 10 9 8 7 5 8 8 8 10 12 11 12 10 11 11 10 10 10 10 9 11 10 10 10 11 11 11 11 10 10 10 10 10 9 10 11 12 12 12 12 13 12 13 13 13 13 13 13 13 13 13 13 13 13
3 3 2 3 4 4 3 3 2 4 6 4 4 4 2 4 3 3 5 5 4 7 3 3 1 3 2 5 2 4 8 7 8 9 10 8 6 6 7 7 6 6 7 10 10 8 7 6 4 7 9 12 11 10 9 11 11 9 8 10 9 8 8 8 11 12 12 10 10 10 11 11 10 10 9 7 7 10 11 12 12 12 13 13 13 13 12 12 12 12 12 12 12 12 12 12 12
4 3 3 3 4 5 5 2 0 3 3 4 6 3 3 4 4 4 4 5 5 6 5 6 3 2 1 4 3 6 8 7 8 8 9 6 6 5 7 7 6 7 7 9 11 9 8 6 5 4 7 12 11 11 11 10 9 9 8 9 8 8 7 11 11 11 10 10 10 9 11 11 10 10 10 10 10 11 11 10 11 12 12 13 12 12 12 11 11 11 11 11 11 11 11 11 11
2 3 3 4 4 7 7 4 2 3 2 3 5 5 4 4 3 4 4 4 6 3 2 6 1 1 3 6 4 6 6 8 11 8 7 7 6 6 7 5 6 5 4 7 9 10 9 7 7 6 7 6 6 9 12 11 10 11 10 9 10 9 9 11 11 10 10 10 10 8 8 8 9 10 9 9 9 9 9 9 10 11 12 12 12 11 11 10 10 10 10 10 10 10 10 10 10
2 3 3 3 5 4 3 3 3 4 1 4 4 6 4 1 4 1 5 4 5 6 1 5 1 1 1 2 5 7 9 11 11 8 6 8 6 7 7 6 7 4 3 5 9 10 9 8 9 7 5 6 6 6 5 9 11 10 11 10 9 9 9 10 10 10 10 9 9 8 7 8 9 10 10 10 9 8 9 8 9 9 11 12 11 10 10 9 9 9 9 9 9 9 9 9 8
2 3 2 3 5 6 3 3 6 4 3 3 4 5 6 2 3 4 3 2 3 3 4 1 1 1 3 8 6 12 12 12 8 7 8 9 6 6 7 6 5 4 3 3 6 7 7 9 8 7 6 6 6 6 6 6 10 11 10 11 10 10 10 10 10 10 10 9 9 9 9 7 7 7 10 8 10 9 8 8 9 8 10 11 11 10 9 8 7 7 7 7 7 6 7 6 6
0 0 2 3 7 5 4 4 4 4 4 3 2 6 5 3 0 3 2 3 7 3 1 3 3 2 6 6 13 14 12 10 8 6 7 7 6 5 6 5 6 4 3 3 4 6 5 7 9 8 7 6 7 6 7 6 7 10 8 10 11 10 10 9 9 9 8 9 8 8 8 5 4 4 6 6 9 7 8 10 10 9 10 10 10 9 9 8 7 7 6 6 5 5 5 4 4
1 2 3 6 5 7 4 5 3 5 5 4 4 6 7 7 3 1 2 1 1 4 4 6 8 7 8 9 11 12 12 11 8 7 7 7 6 6 5 5 6 5 5 4 5 5 6 5 8 8 7 7 7 6 6 6 6 8 7 6 6 7 7 8 7 5 6 4 8 7 5 6 6 4 4 7 6 7 7 9 9 9 10 9 9 9 8 8 7 6 5 3 3 4 6 3 2
3 3 4 7 5 5 7 6 1 3 7 8 5 4 5 7 8 3 3 4 4 4 4 6 8 6 7 11 13 12 11 9 9 7 8 9 8 9 7 6 7 7 5 5 5 7 5 6 6 6 5 7 6 5 6 7 6 5 6 6 6 7 7 7 6 6 5 5 5 5 5 4 4 6 5 7 6 8 7 7 8 9 9 7 6 7 7 5 4 4 2 2 3 2 3 2 3
5 4 6 8 7 5 5 5 6 5 8 6 5 2 2 8 6 4 4 7 5 6 6 6 7 8 9 11 11 11 10 10 9 8 9 8 7 9 8 8 7 8 7 6 6 6 5 5 5 6 5 5 6 6 6 7 6 5 6 5 6 6 6 5 5 6 5 6 5 5 6 3 7 6 8 13 10 6 5 5 6 8 9 7 5 4 5 4 2 1 3 4 3 3 5 4 2
4 7 8 5 7 9 3 1 5 4 2 5 4 2 2 5 4 5 4 5 8 6 7 10 10 12 11 12 11 10 10 10 10 8 8 8 7 7 6 7 6 8 7 6 5 7 7 6 6 4 5 5 4 5 6 7 7 6 6 6 7 6 6 5 4 6 5 7 6 5 2 5 7 6 5 4 6 6 5 5 4 4 4 4 5 3 4 3 2 2 3 3 3 6 1 2 4
1 10 10 10 3 6 3 6 6 3 5 3 4 4 3 4 4 5 6 5 5 5 7 11 9 14 14 14 12 10 11 11 12 10 10 10 9 9 7 6 6 7 7 7 7 7 8 7 7 5 5 4 5 4 5 6 8 6 6 6 7 6 6 5 4 6 5 6 5 4 4 3 5 7 4 4 4 6 6 6 6 6 5 4 5 4 5 4 4 4 5 4 5 2 4 3 3
6 6 8 11 9 6 2 3 4 0 0 2 4 2 3 5 3 4 5 6 2 3 5 2 11 18 16 14 13 12 12 12 13 13 11 10 10 8 8 8 7 8 8 7 8 6 9 8 8 7 6 5 5 4 5 5 6 6 5 6 4 6 7 6 4 5 4 4 4 3 5 5 2 4 5 4 3 2 3 5 4 3 2 5 6 4 4 6 6 6 3 4 0 4 2 1 1
8 6 5 9 10 8 4 3 2 3 1 0 1 4 2 3 4 5 6 6 5 4 4 6 8 16 15 14 14 15 15 15 16 14 13 11 11 10 8 9 7 5 8 7 8 7 8 9 9 9 8 7 5 5 5 4 5 4 5 6 5 4 7 6 5 5 5 5 4 3 5 5 3 2 3 3 2 2 3 2 3 2 3 3 4 4 2 1 1 2 3 2 2 1 1 0 1
10 9 8 4 6 5 5 2 1 0 2 3 2 1 3 5 2 3 7 6 3 4 5 5 12 13 12 13 12 11 11 11 11 11 9 7 7 7 6 7 7 7 9 8 7 8 9 8 9 10 9 9 6 6 4 5 6 4 4 5 5 2 5 6 6 5 6 6 5 3 4 5 6 5 5 4 4 4 3 2 2 4 2 3 2 1 2 2 3 2 1 1 2 3 4 4 3
10 9 7 3 2 0 2 2 3 2 1 0 1 3 5 1 5 2 4 5 4 7 4 5 9 11 12 12 12 12 12 13 12 12 13 10 8 10 9 8 8 9 9 8 9 7 9 8 9 10 10 10 9 7 6 6 7 7 5 6 6 3 3 3 5 6 6 7 7 4 6 4 6 6 6 5 5 4 3 3 2 2 4 3 2 3 3 3 4 3 3 4 3 3 2 4 5
2 6 8 10 6 5 4 4 5 3 3 2 3 4 6 3 3 5 7 7 6 8 6 6 7 11 11 10 11 11 11 12 14 12 9 9 9 10 10 9 9 8 9 9 9 7 9 9 8 9 8 8 8 8 6 5 5 6 6 6 7 6 4 3 3 4 6 6 7 6 6 5 5 6 7 6 5 5 4 4 4 4 3 4 3 3 4 5 3 6 5 4 3 3 4 3 3
3 4 10 12 4 4 4 6 5 4 3 4 3 6 5 3 2 8 3 9 9 9 7 7 6 7 9 10 12 10 11 10 10 10 14 13 11 10 10 11 10 8 11 10 8 6 9 10 10 10 9 9 9 9 7 6 5 5 5 6 6 6 6 4 4 3 4 6 6 8 6 6 4 5 8 6 6 6 5 6 5 5 5 4 4 5 3 3 3 1 2 2 1 1 2 1 3
5 2 6 9 4 6 7 6 6 6 3 6 4 3 8 5 8 8 3 1 5 8 7 8 7 6 7 8 10 9 10 10 10 10 13 12 10 9 12 11 10 9 8 10 9 9 11 10 10 11 10 9 10 11 9 7 6 5 6 6 6 6 7 6 6 5 3 3 3 7 6 6 5 4 6 7 7 7 7 6 6 5 6 6 5 4 3 3 2 0 2 0 1 1 2 3 2
3 4 4 4 7 9 9 6 6 6 3 7 6 3 8 12 12 5 5 5 3 5 7 7 7 7 7 7 8 9 9 10 11 12 11 11 10 11 11 10 10 9 8 8 9 11 10 8 8 8 10 11 11 10 9 8 7 7 7 7 6 7 7 7 7 6 5 4 3 4 6 6 6 5 5 6 6 6 7 7 6 6 5 5 6 4 3 3 4 3 4 4 5 4 4 5 5
7 5 4 5 5 6 9 8 9 8 6 9 4 5 8 7 13 13 11 10 10 8 7 8 8 7 7 7 7 8 10 10 13 14 12 12 11 10 11 10 11 10 8 9 12 12 11 10 8 8 10 10 10 9 10 10 8 8 8 7 7 7 7 7 7 7 7 6 6 5 5 6 6 6 5 7 6 6 5 6 6 7 7 6 6 6 6 6 5 6 6 6 5 5 5 6 3
6 6 9 5 7 3 7 12 12 12 4 9 5 6 12 9 6 12 13 13 14 11 9 9 9 8 8 7 7 8 8 9 11 12 11 11 11 10 11 12 12 12 12 10 10 11 11 10 10 8 9 10 11 9 8 9 9 8 8 8 7 7 7 8 7 7 7 7 7 7 6 6 7 6 6 6 7 7 6 7 7 7 7 7 7 7 6 6 6 6 6 6 4 4 4 4 3
8 10 3 8 6 5 5 13 13 14 6 6 12 6 2 7 15 6 9 11 9 9 9 8 10 10 9 7 7 6 6 7 8 10 11 11 11 10 10 10 11 13 11 10 11 11 11 11 11 10 12 11 11 10 8 7 8 7 8 8 8 8 7 7 7 7 7 8 8 7 8 8 7 7 6 6 7 7 6 6 6 7 6 7 7 6 7 6 3 5 4 4 3 3 1 3 3
9 7 6 5 9 7 7 9 10 10 9 7 11 10 8 2 5 3 4 7 7 8 8 8 9 8 8 7 8 8 8 7 10 10 12 12 9 11 10 10 10 11 10 10 11 12 12 11 11 10 10 10 11 11 9 8 8 8 7 7 7 8 8 6 7 7 7 7 8 8 8 8 8 7 7 7 6 7 7 6 4 6 6 7 7 6 7 6 5 4 4 3 4 3 3 4 4
9 8 7 6 8 10 7 8 9 12 10 7 9 11 11 12 2 3 5 4 5 8 7 6 7 8 9 9 8 8 8 9 10 9 9 10 10 10 9 9 9 9 9 11 10 10 9 9 10 10 10 11 10 11 10 9 7 7 7 7 7 7 6 6 6 7 7 7 7 7 8 8 8 8 8 7 7 6 6 7 6 5 6 7 6 6 6 6 6 4 4 4 4 5 5 4 3
11 11 9 6 7 10 9 6 9 15 12 10 9 11 13 11 11 5 5 8 8 7 5 5 6 6 7 8 8 8 8 10 8 8 9 8 9 10 9 8 9 9 10 11 11 11 11 10 10 10 10 11 9 10 10 9 8 8 9 7 8 8 7 7 7 7 6 7 6 7 7 8 8 8 8 8 7 7 6 7 6 5 7 7 7 6 6 6 7 6 5 5 4 4 5 5 3
9 9 9 11 6 5 6 3 6 10 6 9 9 10 9 10 12 12 7 6 7 7 9 7 6 5 6 7 7 8 9 10 6 8 10 10 9 9 9 8 9 9 9 11 11 11 12 12 12 12 11 10 10 10 10 11 10 9 8 10 10 9 9 8 8 7 7 7 7 7 8 8 9 9 9 8 8 8 7 7 7 6 7 8 8 7 7 7 7 7 6 5 6 5 4 4 4
14 11 12 12 8 6 6 8 9 7 5 5 9 9 11 10 9 8 9 9 11 11 10 9 9 7 5 8 9 10 8 4 6 6 8 8 8 8 8 8 8 11 10 11 12 12 11 11 12 11 11 11 11 11 10 10 9 10 10 9 8 8 9 9 9 8 8 7 9 9 9 8 8 10 9 9 9 9 8 8 8 8 8 8 8 7 7 7 7 7 6 6 6 7 5 5 5
10 9 10 9 10 3 7 6 5 3 3 4 4 10 12 12 12 10 9 8 9 11 11 11 10 9 8 8 8 8 7 7 7 9 8 9 9 10 9 8 8 11 11 12 12 11 11 11 11 11 11 11 11 11 10 10 9 8 9 6 8 6 7 7 7 7 8 8 8 10 10 9 10 10 10 10 10 10 10 9 9 9 9 8 8 8 8 9 8 8 8 7 5 5 6 5 5
4 7 9 11 7 8 3 3 6 4 4 2 2 5 6 5 5 6 7 10 9 6 10 11 10 11 13 12 11 10 10 9 9 9 11 10 10 10 9 9 10 9 10 10 11 13 11 11 10 11 11 12 11 11 11 9 9 8 7 6 7 7 6 7 8 7 8 9 10 8 8 9 9 9 10 11 9 10 10 10 8 9 9 9 9 9 9 9 8 7 7 7 6 5 5 6 5
5 5 3 6 9 8 3 6 4 4 3 3 4 5 8 7 9 8 8 9 8 7 8 8 9 10 11 10 10 12 13 11 11 9 8 8 10 12 14 12 9 10 11 12 12 12 10 13 12 12 11 13 12 12 12 9 8 6 6 5 4 6 4 7 7 7 9 9 8 8 10 7 8 10 10 11 10 10 10 9 9 8 9 9 9 9 9 10 9 8 9 8 8 7 5 5 5
5 4 5 2 3 4 12 8 6 1 4 6 6 1 7 7 13 14 10 10 14 12 11 12 11 10 9 11 12 11 11 11 13 13 13 12 13 11 10 10 12 12 12 12 12 12 11 12 13 13 11 11 11 12 12 9 10 10 9 9 9 9 10 9 11 12 10 11 12 8 7 9 9 8 9 10 11 10 10 10 10 9 9 9 10 9 9 8 9 9 9 8 9 8 7 5 5
7 8 7 6 7 3 9 7 4 2 3 2 4 8 5 2 3 6 9 12 14 11 15 15 13 13 12 12 11 10 11 10 9 10 11 11 11 12 12 12 14 14 13 10 10 12 13 12 13 14 12 11 10 10 12 11 9 9 12 13 12 12 13 11 9 8 10 9 8 9 9 9 10 10 9 9 10 11 11 10 11 10 10 10 9 9 10 11 10 10 9 9 9 8 8 8 7
10 4 9 8 7 3 4 7 5 3 3 1 2 2 3 8 11 8 7 6 5 8 12 15 14 14 13 11 11 10 11 11 11 11 13 14 14 15 15 15 14 15 12 10 11 12 14 14 13 13 11 11 10 9 12 13 12 10 11 11 11 12 12 12 11 10 8 8 10 11 10 10 11 11 10 10 10 11 11 11 11 10 11 10 10 11 11 10 9 9 10 10 9 9 9 9 7
4 7 17 12 7 1 3 3 2 1 2 4 5 1 2 6 5 6 6 10 11 11 6 8 14 13 12 12 12 13 14 14 13 12 12 13 15 15 14 14 15 13 10 12 13 13 12 11 10 10 11 11 10 11 12 13 13 12 11 11 11 11 11 10 6 8 9 9 11 10 11 11 11 13 13 12 11 11 11 12 12 12 12 12 11 11 10 10 12 11 11 10 10 9 8 8 7
3 3 8 5 3 5 1 4 1 1 1 7 6 6 5 6 5 3 7 11 12 12 12 11 11 13 14 13 12 13 14 12 13 15 14 13 12 14 15 15 12 12 12 12 10 8 9 9 10 11 13 12 11 12 13 13 14 12 12 12 14 12 9 7 6 7 9 9 10 11 11 11 11 11 13 14 13 13 12 12 12 13 13 12 10 11 11 12 11 11 11 11 11 10 8 8 9
2 12 12 6 5 4 2 4 2 2 4 11 6 8 6 7 5 10 7 7 10 9 9 9 10 9 9 12 14 13 12 13 13 14 14 14 13 12 11 12 12 11 9 9 9 10 9 11 12 13 14 11 11 12 13 14 13 13 13 14 14 12 9 8 8 9 8 8 10 10 10 10 10 11 10 12 13 12 12 12 12 12 11 11 11 11 11 11 10 10 9 10 11 12 9 9 8
6 2 7 8 6 5 3 2 1 2 9 2 10 7 7 8 3 8 10 6 9 11 9 8 6 8 10 10 12 12 10 10 11 11 10 9 8 9 9 10 10 10 9 9 9 9 10 11 11 13 12 12 11 11 12 13 12 14 13 13 13 13 11 10 12 12 11 11 11 10 9 8 9 8 9 10 11 12 12 11 12 12 11 11 11 10 10 10 9 9 9 9 10 11 10 10 9
6 9 10 10 3 3 2 2 5 10 6 1 2 6 2 18 7 9 4 6 5 4 7 7 6 5 5 7 11 10 9 8 9 9 8 6 9 10 10 9 8 9 11 12 11 10 9 9 11 12 13 12 11 10 12 13 12 13 14 14 13 11 11 12 11 12 10 10 9 9 9 10 9 9 10 10 11 13 11 11 10 11 11 11 10 10 10 10 9 9 10 9 9 11 11 11 9
9 12 10 9 6 5 7 5 2 4 2 1 3 5 6 3 4 12 13 17 14 9 5 5 6 6 1 4 3 1 2 2 2 1 6 7 7 7 9 9 9 9 10 10 9 9 8 9 9 11 13 10 9 8 10 11 13 12 11 11 11 10 11 12 11 11 11 10 9 9 10 10 10 11 10 11 10 11 10 11 11 11 11 10 10 10 10 10 10 8 8 9 9 9 9 11 10
15 8 11 7 7 4 6 6 10 7 2 1 3 5 8 4 4 2 13 17 14 10 13 8 3 2 4 3 3 2 3 3 4 5 4 5 8 8 8 8 9 9 9 9 8 8 7 7 8 11 9 9 10 11 8 10 11 11 10 10 10 10 11 11 10 10 9 10 9 9 9 9 10 10 10 8 9 10 11 10 11 12 11 11 10 10 9 9 9 9 8 8 7 7 8 9 9
7 6 4 6 8 3 5 1 3 1 1 0 3 7 2 5 4 7 6 5 4 2 3 4 5 3 3 2 2 1 2 3 4 5 5 5 5 6 6 6 7 7 7 6 7 7 7 8 7 8 10 8 8 9 10 10 9 8 9 12 12 11 10 9 9 8 8 9 9 10 10 10 10 8 8 8 9 10 10 11 11 11 10 11 10 10 10 10 10 10 9 8 9 7 9 10 9
8 7 11 6 2 4 3 3 0 1 2 7 4 5 6 6 11 14 12 8 8 6 6 6 6 5 5 5 5 5 4 4 4 5 5 6 6 5 5 5 5 5 6 7 7 8 8 8 7 8 6 5 7 8 8 8 8 8 10 10 10 10 10 10 10 9 10 9 8 9 10 9 8 8 8 8 9 10 10 11 11 11 11 10 10 10 10 10 9 10 9 8 9 8 9 9 8
9 8 6 4 4 2 2 3 2 1 3 5 8 12 3 3 8 5 17 16 13 6 7 7 6 4 5 6 5 6 6 6 6 5 3 4 5 5 5 4 5 5 5 5 6 5 5 6 6 6 5 7 6 6 8 8 8 9 8 9 10 10 10 10 9 8 7 8 8 7 7 8 9 8 7 6 8 10 10 11 10 10 10 10 10 10 11 10 9 8 8 9 8 6 7 6 6
6 10 9 13 4 4 1 1 6 5 6 4 4 9 4 9 8 2 3 9 10 9 6 6 7 7 7 6 5 6 6 5 5 5 5 5 5 5 5 5 4 5 5 5 5 5 5 5 5 6 7 7 6 6 5 5 6 6 6 7 7 8 8 8 8 8 7 8 8 8 7 7 6 7 7 7 7 8 8 9 9 9 9 10 10 9 9 10 10 9 9 9 7 7 6 6 6
1 7 8 3 1 5 10 10 1 3 4 2 4 7 6 9 7 5 6 5 6 5 7 8 9 8 7 5 7 7 7 6 6 5 5 5 5 5 6 7 6 6 5 5 5 5 5 5 4 4 3 3 5 6 5 6 5 5 5 5 6 6 6 7 7 8 9 9 8 6 6 5 6 5 6 6 6 7 7 7 7 8 8 9 10 9 9 9 9 8 8 7 7 9 8 7 5
6 10 7 6 3 1 2 2 5 3 2 5 3 4 5 4 9 11 13 10 5 5 7 7 6 7 5 4 6 6 6 6 6 6 6 6 6 5 5 5 5 4 4 4 5 5 5 5 5 5 6 5 5 5 5 5 5 5 6 7 7 6 6 6 6 6 7 7 6 6 5 5 4 6 5 6 6 7 7 7 7 8 9 8 9 9 8 8 9 9 8 8 8 9 10 9 9
15 15 14 14 12 7 11 8 2 4 1 4 4 11 2 0 1 3 3 3 7 4 6 6 5 5 5 5 5 6 5 5 6 6 6 6 6 5 4 4 4 4 4 4 4 4 5 5 5 5 5 5 5 5 5 4 4 4 5 6 6 5 5 4 5 5 6 5 5 5 5 5 5 5 6 6 6 5 6 6 5 6 8 8 8 8 8 9 9 8 7 8 9 9 9 8 7
Wind_Direction
296 275 247 244 259 265 298 258 290 187 227 246 218 55 85 54 110 115 91 163 120 54 53 61 51 47 9 60 86 77 34 46 6 267 93 132 180 114 112 124 120 109 112 120 123 125 113 109 114 113 112 108 105 106 105 104 96 94 95 99 89 83 83 86 90 88 89 89 87 83 83 84 84 81 77 77 79 79 81 79 79 80 80 79 79 78 78 77 76 75 73 71 69 67 65 63 62
287 288 285 255 262 323 270 229 263 273 221 250 72 102 101 100 233 112 164 163 84 104 77 69 56 46 330 47 127 108 51 59 59 79 100 114 106 110 119 130 126 119 121 131 133 125 112 114 121 118 116 115 111 111 108 106 105 101 103 97 94 94 95 96 93 91 88 86 85 89 88 86 82 80 83 82 80 81 78 77 79 82 82 81 81 81 80 78 77 74 73 71 69 67 65 64 63
305 310 309 287 237 205 268 226 261 288 275 34 60 75 151 130 168 124 81 80 99 106 90 76 72 79 109 204 50 57 104 92 83 85 100 127 120 126 136 135 118 123 133 140 130 121 119 112 122 118 116 116 115 113 112 111 108 103 103 105 101 97 93 88 86 92 92 88 90 90 89 88 86 88 85 82 82 81 77 78 80 82 83 82 82 82 80 78 77 75 73 72 70 68 67 65 64
289 272 275 313 304 225 260 213 232 271 300 58 87 160 118 84 63 73 77 81 88 119 115 135 154 53 339 80 94 91 98 75 94 112 118 163 124 140 134 122 120 126 128 120 139 122 116 115 125 122 123 122 119 112 122 124 110 103 98 94 97 102 99 90 90 92 97 97 93 91 89 88 86 76 80 87 85 82 76 76 78 82 83 82 81 82 81 79 78 77 75 74 72 69 68 66 64
277 260 244 292 322 294 316 260 299 296 282 345 118 124 110 99 103 92 95 101 118 116 163 126 103 37 16 38 351 66 87 111 113 132 119 90 120 131 127 125 124 133 127 131 120 114 122 115 122 127 127 128 116 115 109 102 102 103 106 108 106 93 98 100 101 101 101 103 99 92 90 88 86 84 83 85 85 81 84 85 81 80 82 84 86 84 83 81 79 78 76 74 73 70 67 64 61
256 260 248 214 260 47 303 307 257 245 349 352 57 62 49 100 103 109 115 127 117 156 76 189 87 182 91 43 13 94 277 102 131 96 106 126 119 130 125 120 125 141 116 111 112 114 120 115 119 129 127 119 112 107 108 108 107 106 116 111 103 99 97 100 100 94 99 100 98 97 94 90 86 87 91 88 85 84 83 82 81 80 82 87 89 87 84 81 78 76 74 72 71 69 65 62 61
302 345 260 224 269 135 251 246 262 237 340 4 63 104 92 91 107 115 112 92 97 56 347 148 106 117 118 120 78 45 10 110 134 128 112 115 122 126 144 123 135 134 120 118 111 114 118 118 121 127 124 124 117 115 118 108 106 105 108 113 105 104 103 101 96 97 98 103 104 99 95 92 90 89 90 89 89 88 84 83 84 84 84 85 86 84 82 80 78 76 74 72 70 67 65 63 61
260 233 327 343 291 163 244 253 261 311 43 47 38 58 80 103 126 141 142 141 151 187 189 269 179 341 99 171 103 124 69 59 87 103 114 123 119 143 137 133 127 131 114 109 113 116 115 108 112 117 126 123 125 124 127 118 99 104 116 111 110 106 104 106 104 104 107 107 106 104 101 97 93 92 91 88 86 90 94 94 91 89 89 87 84 84 82 80 78 77 75 73 70 68 66 63 61
258 229 101 338 255 239 260 260 267 96 140 121 80 68 8 130 127 150 161 157 127 175 176 206 182 210 170 90 89 102 73 98 103 114 122 122 132 152 136 130 130 129 93 107 116 121 116 108 107 106 116 125 122 121 131 127 112 113 119 115 114 112 113 111 110 109 108 106 105 106 104 102 98 95 93 93 95 96 95 93 93 92 90 88 85 79 79 79 78 76 75 73 71 68 66 63 59
282 136 256 264 292 275 239 238 250 149 114 94 125 139 165 117 161 151 159 117 152 123 168 189 121 330 118 102 119 148 124 114 121 116 125 129 140 151 133 123 127 122 110 122 126 125 120 108 104 105 114 123 123 122 120 123 129 124 127 121 115 115 115 117 113 111 109 108 108 111 109 101 100 98 99 95 96 101 104 99 97 96 93 89 88 88 84 82 80 78 76 74 73 69 66 63 59
287 183 235 331 253 251 257 258 167 116 120 118 99 125 157 190 143 178 154 137 124 146 103 172 131 230 149 96 72 53 116 119 126 129 134 135 142 139 124 123 125 130 125 133 125 123 125 115 103 97 108 121 117 117 119 123 128 127 135 126 124 122 124 124 129 127 121 116 112 106 101 101 101 101 96 93 96 100 101 100 100 98 94 94 92 88 86 85 82 80 76 75 73 71 66 62 58
289 274 135 244 260 251 259 325 119 109 104 146 141 140 133 169 164 180 154 139 158 115 147 181 179 178 161 126 134 156 127 144 125 131 128 135 138 130 118 116 134 122 119 118 120 132 130 124 114 103 112 119 116 109 106 115 126 133 124 126 124 123 124 116 92 89 91 97 107 113 111 106 99 95 79 59 80 91 95 97 98 96 94 88 85 84 85 85 84 81 79 75 73 71 67 61 56
257 309 259 242 250 258 273 194 244 98 120 188 135 135 159 153 182 189 157 130 180 141 157 203 49 354 214 88 124 136 147 143 131 128 132 141 131 115 111 127 126 127 128 136 135 140 135 144 127 117 119 118 118 115 113 114 115 110 104 110 105 96 96 101 98 98 98 99 105 108 107 100 98 82 68 62 69 83 88 91 95 92 86 84 84 85 83 83 82 81 79 77 74 71 68 63 56
261 237 274 254 252 272 290 301 279 92 226 94 102 132 173 164 186 177 128 160 157 188 91 127 97 259 95 113 151 152 157 141 133 131 147 130 124 123 120 130 118 138 147 138 131 136 144 154 139 128 135 125 121 121 121 119 112 113 106 96 98 97 94 102 107 108 105 102 95 86 88 89 83 78 70 63 68 71 71 77 86 91 89 86 85 86 87 86 84 78 78 77 75 72 69 66 59
297 300 278 272 280 285 253 269 265 180 68 118 136 147 150 135 177 159 158 183 71 108 85 67 31 86 62 218 159 170 153 136 134 142 136 123 126 127 124 118 117 133 139 150 141 144 156 156 144 146 157 139 143 132 125 125 123 118 115 110 105 101 99 105 108 110 110 106 105 97 92 91 87 83 74 65 57 70 78 67 77 87 89 86 84 82 85 85 87 82 77 77 77 75 72 67 58
235 334 271 265 249 248 243 246 271 337 117 135 206 143 132 29 329 166 46 25 151 114 135 117 16 48 56 55 118 136 142 125 134 140 126 124 131 114 119 124 126 130 160 198 138 144 161 150 148 152 171 158 162 152 133 130 130 127 125 123 118 114 113 111 115 115 115 113 116 117 115 106 98 95 89 71 60 53 70 78 70 83 89 86 87 88 88 89 88 88 84 84 86 91 90 88 79
7 264 285 238 255 236 241 229 233 216 116 112 198 163 142 163 270 43 272 111 138 145 93 108 123 94 65 84 111 127 119 119 126 138 125 132 128 129 134 139 129 149 177 209 141 150 168 146 145 150 179 162 171 152 141 133 133 125 121 121 124 125 123 121 117 120 121 127 129 140 139 129 131 127 106 91 73 62 61 77 77 79 93 88 84 83 81 79 77 82 87 94 113 115 100 112 134
246 217 237 250 243 243 224 236 213 118 142 146 192 192 140 145 184 117 162 126 111 139 138 80 71 72 106 114 111 109 116 127 144 148 148 147 147 146 155 160 145 158 180 199 160 170 154 161 145 165 174 160 175 145 142 137 146 136 135 136 128 126 128 130 135 142 142 146 154 164 177 163 159 160 122 107 94 80 60 70 78 79 84 88 89 83 72 63 60 64 81 110 168 156 157 148 226
211 233 230 246 228 250 258 223 155 155 139 161 168 219 169 162 156 159 158 176 155 150 161 132 114 104 109 114 118 120 130 134 155 165 165 163 163 162 165 163 159 153 174 197 168 176 158 163 162 162 163 161 165 143 139 139 156 157 153 154 144 146 153 158 164 157 162 158 182 187 211 206 100 88 90 103 100 93 84 80 88 97 102 90 91 89 85 74 58 43 22 281 258 204 194 259 228
213 255 229 233 261 278 317 24 72 35 109 117 151 165 285 137 153 135 199 173 186 182 176 157 158 149 151 135 135 135 142 151 168 173 174 176 174 167 167 167 168 160 170 185 173 167 160 164 177 151 169 165 149 144 128 143 163 188 161 168 153 156 164 186 179 171 167 167 195 201 218 142 111 103 113 120 122 123 111 99 117 124 128 125 116 108 102 100 120 235 240 253 304 277 241 207 193
176 216 235 242 228 266 226 357 88 53 345 136 125 128 187 152 140 157 201 180 190 205 194 175 179 163 156 148 144 147 149 162 173 186 183 180 185 169 171 172 177 154 164 181 168 166 167 173 171 171 157 155 158 147 146 160 170 188 163 168 161 161 166 199 194 173 180 174 199 211 189 127 124 132 137 149 159 147 154 150 164 176 169 161 177 181 160 173 187 227 251 248 249 263 301 13 35
212 213 230 258 292 335 27 58 48 56 353 109 113 140 196 154 126 189 188 201 186 196 201 179 182 154 154 156 156 155 160 169 180 187 194 184 185 172 172 162 173 148 156 177 177 169 165 183 164 172 158 158 169 164 162 176 162 181 162 170 160 159 158 188 209 170 194 168 193 211 123 92 117 122 143 166 181 173 167 170 187 196 175 169 187 198 181 174 193 208 220 229 244 209 68 34 33
229 234 230 238 260 296 63 55 357 33 158 124 170 193 114 166 186 193 214 211 125 136 46 153 178 155 163 151 150 161 167 177 182 191 193 187 188 177 181 162 170 162 162 179 169 179 168 180 163 164 166 164 177 173 178 171 158 168 156 157 159 163 154 169 204 159 186 157 182 222 125 122 124 129 161 170 183 129 182 175 171 149 141 161 192 210 198 179 195 202 213 241 275 63 42 56 316
211 233 225 235 263 249 71 76 345 339 74 210 6 50 160 194 218 182 219 230 113 71 80 48 84 139 140 149 165 169 175 178 188 192 194 192 185 179 178 165 173 158 158 178 172 174 173 181 167 163 164 163 182 190 185 171 159 161 157 153 173 170 149 159 181 170 172 165 174 205 124 124 154 145 134 126 159 197 190 168 147 136 169 220 182 205 160 110 235 226 194 249 99 93 219 257 276
211 225 242 271 225 212 77 99 186 310 316 41 281 171 229 199 245 147 205 224 183 127 106 88 115 134 152 153 166 171 176 181 186 189 194 210 191 182 175 163 172 163 165 178 174 170 178 183 169 166 162 169 173 188 201 168 158 178 156 138 167 190 151 161 175 179 163 161 174 178 148 155 174 165 161 170 170 200 176 144 136 159 181 239 148 238 148 192 238 236 224 226 153 208 196 199 226
221 213 222 222 235 182 160 156 192 182 251 116 286 244 251 164 77 248 227 209 218 142 131 141 140 147 159 165 169 172 179 182 181 183 191 195 191 188 182 180 177 174 173 173 171 179 173 178 175 174 168 168 169 181 204 183 168 174 174 152 168 190 172 193 177 173 168 157 170 172 172 192 168 167 166 173 172 178 166 156 146 190 189 228 160 208 193 186 203 207 221 236 192 213 224 197 177
260 219 229 240 197 209 155 215 195 184 230 171 235 232 235 128 149 253 207 220 199 141 152 161 169 165 169 167 171 176 179 182 184 182 181 190 199 196 187 185 186 176 164 178 177 175 170 171 176 178 175 165 162 176 190 190 164 165 168 161 163 172 174 216 224 179 172 169 165 175 172 205 180 166 161 171 160 163 157 160 180 206 183 217 183 228 199 210 208 188 204 208 214 213 222 186 160
226 241 217 231 201 201 170 216 225 137 223 208 230 261 251 114 219 228 264 199 193 153 164 170 181 182 176 171 171 178 182 184 176 176 185 187 197 195 190 189 189 171 169 182 178 165 166 175 175 181 180 167 164 173 175 186 175 163 161 157 163 162 163 190 219 214 181 179 166 167 169 195 202 171 160 164 162 164 170 170 194 185 195 195 189 220 189 208 262 241 135 92 52 20 331 309 181
247 297 242 213 200 223 192 208 218 148 222 171 204 287 270 168 229 213 226 340 146 155 178 174 186 195 184 181 170 179 183 175 175 184 191 193 192 191 197 192 185 179 176 178 174 168 173 178 180 182 177 173 173 174 172 177 170 166 165 172 176 164 167 175 195 204 196 205 171 160 168 178 205 184 161 167 162 172 175 178 186 181 188 178 183 202 165 191 263 75 92 94 315 257 279 284 214
214 214 252 217 211 229 208 203 214 165 217 161 148 239 232 232 229 199 196 158 175 171 188 178 186 198 190 189 177 179 182 172 180 190 191 190 187 192 198 188 184 181 174 178 170 178 175 182 182 177 181 176 180 175 167 172 175 171 168 174 180 168 168 174 183 181 186 202 199 173 170 176 188 201 165 164 179 178 176 176 177 182 190 172 166 150 161 204 200 195 178 171 215 208 220 229 226
198 194 221 237 206 222 199 198 192 208 163 164 162 244 259 231 215 209 190 173 176 192 193 180 187 194 193 189 184 183 188 184 184 189 191 187 186 190 195 186 181 180 178 181 183 178 176 178 178 180 182 176 178 178 172 174 177 170 167 172 182 176 172 176 183 176 176 189 184 198 181 182 184 195 181 169 180 190 185 179 183 178 184 163 154 165 183 206 198 189 184 187 203 206 220 221 188
198 177 214 217 233 207 214 184 186 199 164 169 152 251 253 258 277 204 195 186 183 192 191 186 186 189 192 186 187 189 194 191 190 190 187 187 184 190 190 192 181 181 186 183 175 174 182 178 178 179 181 172 179 183 178 175 180 172 168 173 183 179 177 179 180 180 175 181 186 187 190 185 187 192 195 176 177 191 196 183 193 185 175 163 167 176 187 200 208 196 199 188 191 222 215 229 195
214 210 170 202 197 241 253 185 183 192 141 198 187 224 217 245 238 203 168 181 191 201 195 190 189 189 188 185 186 188 191 196 195 191 189 189 189 188 190 192 183 182 182 176 176 176 180 178 179 180 181 173 177 185 183 176 180 179 174 178 183 179 180 182 182 181 182 181 186 186 187 187 187 191 193 188 178 185 203 204 191 179 170 166 174 178 187 208 209 190 207 199 180 216 246 257 235
206 199 223 178 197 201 257 150 180 174 149 196 207 233 255 340 56 61 125 175 185 206 211 198 191 188 186 183 181 186 194 194 200 196 192 190 190 187 184 187 185 179 180 179 177 178 180 174 181 182 179 178 176 184 185 182 183 180 178 179 180 180 186 185 185 184 189 185 183 189 182 185 189 190 191 190 189 188 189 200 204 181 172 167 173 179 182 194 216 186 199 211 187 193 233 244 249
174 181 206 205 199 201 213 165 171 177 189 194 197 234 241 260 233 175 176 219 196 212 212 216 200 187 184 181 184 190 194 198 203 200 196 188 187 188 182 179 184 180 180 182 177 177 177 172 178 186 176 184 178 180 184 186 186 181 178 174 184 184 188 191 190 193 191 187 187 186 182 182 187 190 191 191 190 194 190 195 200 189 163 167 175 185 184 190 205 193 189 214 194 187 202 217 225
183 179 186 219 190 198 213 190 160 181 187 206 198 212 233 239 250 221 194 188 195 210 218 226 230 206 182 177 184 191 198 205 196 187 193 191 185 183 183 176 184 181 179 183 179 177 182 175 177 185 186 183 180 179 180 186 189 186 183 179 183 192 185 190 197 194 188 189 191 186 189 182 183 188 189 193 190 193 195 195 196 186 166 168 181 187 193 190 195 197 206 205 215 222 212 214 215
185 173 178 219 214 201 204 97 163 183 171 208 207 224 228 230 229 237 210 193 204 200 202 215 225 219 185 179 190 200 201 206 185 180 181 190 185 182 182 176 178 181 181 182 183 184 185 183 174 185 187 181 185 183 185 185 187 190 192 193 192 187 189 186 194 192 188 192 190 192 190 188 182 185 189 190 194 195 194 193 193 189 175 175 182 194 193 196 198 194 195 191 207 224 242 203 203
188 177 184 206 214 224 175 155 149 197 166 211 218 238 242 242 241 231 226 187 207 204 202 203 210 218 196 188 198 203 209 196 170 179 181 182 182 181 178 181 173 179 188 182 188 189 185 184 183 179 184 189 191 193 187 190 191 194 191 195 188 186 188 190 194 195 194 188 193 192 192 190 185 186 189 190 195 194 194 193 193 190 180 185 189 191 193 199 201 192 183 199 200 198 221 199 206
202 180 181 198 211 152 54 121 153 151 161 261 213 216 232 233 239 240 238 236 213 204 200 202 200 201 208 208 205 199 193 200 188 191 183 181 182 180 180 185 184 185 183 188 189 187 189 188 185 178 184 191 196 194 189 193 192 195 193 190 188 195 199 197 198 194 191 195 197 197 193 190 191 190 187 190 193 194 197 196 196 191 189 183 189 196 196 203 200 190 187 186 197 208 211 214 193
232 181 181 200 184 190 186 164 165 163 171 203 226 281 265 271 263 248 226 225 236 216 202 205 196 198 204 207 202 199 200 193 194 188 188 187 180 181 182 188 189 181 185 191 190 191 191 193 187 183 183 190 195 196 195 190 191 194 195 185 194 196 192 190 194 190 184 192 206 197 196 195 196 194 188 191 194 195 196 199 196 191 192 189 192 195 199 203 196 192 189 192 179 201 204 228 193
232 205 206 185 192 203 177 161 168 139 255 304 303 295 271 224 245 252 254 249 250 234 235 223 207 208 207 207 205 199 199 195 194 194 192 182 179 186 189 190 179 187 192 193 192 190 193 192 190 188 189 191 193 193 191 182 176 181 187 199 191 201 203 187 184 194 191 196 199 206 206 196 199 200 195 192 194 197 197 199 198 193 188 191 193 197 199 202 196 194 192 190 195 196 209 197 219
224 237 196 273 203 167 105 138 152 136 243 209 159 310 264 212 220 229 228 224 229 229 232 227 219 217 211 211 209 205 206 195 192 193 193 189 189 191 188 181 187 196 198 198 193 193 191 192 191 192 194 195 193 190 189 179 178 180 180 187 195 195 204 195 198 197 192 195 203 200 204 206 210 207 202 196 195 196 198 198 197 194 193 194 195 197 199 198 202 198 197 194 200 202 197 202 209
196 213 187 226 267 167 139 148 129 212 235 198 184 197 273 327 276 226 226 226 227 219 218 223 219 220 216 215 209 206 202 203 197 193 192 190 190 186 191 189 194 197 204 192 190 196 197 195 195 194 193 194 191 185 184 188 188 186 189 195 197 198 203 211 206 198 195 200 192 198 203 205 212 214 214 206 200 199 200 200 197 197 200 200 195 196 200 202 200 200 194 197 199 190 193 213 208
218 139 172 214 235 156 168 146 164 228 76 38 281 181 244 279 250 257 276 293 266 226 214 216 219 220 218 216 213 215 213 206 199 195 190 192 188 187 191 195 196 201 196 183 196 197 198 198 195 196 195 193 192 183 182 188 195 194 194 199 204 210 210 212 202 204 196 186 193 199 198 202 204 210 215 217 211 200 202 203 203 203 204 205 196 203 205 204 201 200 196 193 188 191 194 203 208
223 173 175 200 223 129 101 95 154 201 59 259 218 198 300 233 261 181 238 261 258 264 251 216 217 219 218 218 215 214 216 214 207 205 199 190 190 191 190 193 200 198 182 190 197 197 197 196 195 195 198 195 192 186 183 189 195 199 200 201 208 217 216 218 202 198 202 192 195 197 198 200 201 203 208 213 215 209 200 206 204 206 207 206 200 205 207 204 205 199 194 189 191 195 196 195 194
286 40 96 83 58 30 1 135 155 286 113 244 192 171 226 261 237 253 199 218 232 230 232 235 221 214 216 220 221 216 215 215 212 211 210 205 193 190 190 191 191 189 191 192 190 186 190 191 194 194 202 198 194 190 188 189 194 196 202 207 212 214 212 216 203 206 203 197 202 198 199 199 201 202 205 207 210 211 204 202 206 207 208 207 202 204 201 204 205 203 195 192 190 194 193 190 196
182 89 88 67 76 86 11 44 68 47 259 240 187 200 179 293 216 208 196 214 209 217 229 235 237 234 220 217 219 217 210 208 210 212 210 207 202 190 182 182 186 185 182 178 180 186 188 191 197 199 205 199 196 195 191 194 193 196 206 210 214 216 207 204 206 216 209 203 209 207 200 200 198 203 201 206 208 206 208 202 206 210 210 208 207 205 205 203 203 201 197 193 192 192 195 196 198
125 123 121 108 85 53 50 8 26 175 253 144 187 198 180 233 253 233 209 201 197 198 216 223 233 233 229 222 219 217 212 207 210 209 213 204 191 194 178 181 175 176 169 175 184 185 189 194 193 201 204 201 198 198 195 200 194 201 208 209 212 214 206 205 209 212 207 208 207 210 210 207 208 203 198 202 205 204 205 205 205 209 211 209 210 208 207 204 201 199 199 197 196 193 193 195 198
116 127 142 131 154 120 197 143 209 213 235 263 340 177 221 239 228 286 283 276 275 204 194 206 223 255 256 232 206 204 206 202 199 199 199 189 181 177 177 175 164 165 177 183 185 185 187 189 193 197 206 201 198 194 200 201 200 203 205 208 213 210 210 212 211 214 210 211 206 205 201 210 208 209 209 203 205 202 203 206 204 207 210 209 206 203 205 201 200 203 203 201 193 192 195 194 195
162 169 165 159 144 175 203 182 256 301 230 210 107 38 272 309 280 223 254 263 250 246 231 225 232 235 285 44 17 27 50 73 58 177 187 176 170 170 172 169 172 175 180 181 181 180 185 190 194 199 209 196 198 196 200 201 207 211 205 207 213 210 215 214 215 213 211 213 209 209 206 207 208 213 208 209 200 201 206 209 209 213 216 214 210 209 206 204 205 206 202 200 198 194 189 194 196
189 174 177 172 160 163 186 172 200 203 186 147 188 87 232 150 258 191 221 244 262 251 237 238 223 166 127 151 110 93 93 103 115 97 109 155 166 167 170 173 177 181 178 179 179 185 180 191 196 205 205 197 196 203 201 205 210 212 214 212 211 211 216 217 219 215 209 209 209 211 210 209 212 213 212 205 192 198 204 207 210 212 213 216 214 215 215 213 211 211 209 203 198 194 195 192 197
190 169 126 186 207 151 175 157 181 152 115 271 227 199 239 186 289 284 259 254 242 196 204 186 247 223 149 146 166 177 186 162 145 142 158 172 181 180 177 182 186 188 183 169 173 174 183 195 198 207 206 200 198 199 204 208 211 207 210 215 217 215 216 219 224 220 218 210 210 211 212 210 212 207 206 189 191 190 197 204 207 211 209 210 207 207 208 211 208 208 206 203 205 197 202 199 198
171 160 201 180 1 98 106 30 154 59 29 254 174 292 284 298 287 272 282 269 248 225 224 215 234 221 174 202 203 186 176 164 164 181 186 191 183 180 174 167 157 150 155 169 176 177 182 187 193 206 206 198 202 203 203 205 208 207 216 216 217 218 217 216 219 221 221 219 214 213 213 212 207 202 195 186 184 189 192 197 203 206 207 206 206 202 202 204 205 205 204 200 204 198 200 200 189
147 194 189 100 56 69 127 185 85 180 216 255 159 225 225 151 279 224 215 231 243 218 213 205 223 208 206 220 198 181 175 190 196 187 169 160 151 143 128 126 139 148 150 152 166 168 174 176 183 189 194 202 210 199 205 204 205 212 215 217 219 219 220 222 218 218 213 213 220 218 210 207 209 202 196 188 180 186 191 191 200 204 206 204 205 201 199 200 199 202 202 204 203 190 198 189 183
180 178 151 157 196 187 198 156 216 171 215 254 235 217 223 196 223 357 186 210 239 230 204 191 212 207 210 209 189 177 181 177 175 148 127 121 132 142 143 146 140 139 151 160 157 153 153 165 179 181 197 204 203 207 206 210 206 210 211 216 215 220 221 222 221 216 212 217 220 219 216 213 204 198 193 183 183 182 189 193 197 204 204 207 207 204 197 193 191 197 196 198 186 179 185 182 175
76 100 172 214 94 203 170 193 29 130 249 270 278 172 245 199 216 204 262 211 216 209 195 199 201 193 188 188 170 178 182 177 158 145 145 148 148 152 155 157 154 150 142 137 132 137 155 167 164 179 189 191 196 202 204 210 213 204 216 217 224 219 218 218 215 212 217 222 223 220 222 219 210 189 194 180 176 183 189 195 200 202 204 204 206 204 198 197 192 192 184 184 177 169 170 170 169
154 171 182 192 202 262 129 210 197 159 195 225 300 287 270 243 186 193 218 223 224 205 201 200 185 168 155 150 162 174 172 159 153 148 147 146 147 143 141 131 131 118 115 133 153 166 174 170 173 182 185 199 203 209 196 207 201 211 210 215 217 219 225 217 217 214 216 219 221 219 222 223 201 205 185 185 180 184 186 193 198 205 208 206 202 200 197 198 199 198 189 178 167 170 172 175 168
176 180 191 181 166 138 174 216 194 231 132 218 213 253 276 287 338 170 163 135 95 59 99 86 100 102 102 102 106 130 133 146 143 143 146 153 150 146 139 127 133 142 157 170 185 160 161 170 179 179 184 192 197 213 206 212 212 215 216 217 217 218 221 224 223 226 225 219 216 213 211 210 208 205 186 193 192 188 184 181 194 210 211 206 203 201 195 195 194 188 178 171 168 167 169 170 175